sat.trackr.live / text

‹ back to catalog

ONEWEB-0126

NORAD 47272 · 2020-100Q

PAYLOAD ACTIVE UNKNOWN

§ Identity

Operator
Country
UK
Launch date
2020-12-18
Launch site
VOSTO
Launch vehicle
Mass (kg)
RCS (m²)

Purposes: comms

External: N2YO · Heavens-Above · Gunter

§ Orbital elements

Epoch: 2026-09-20T04:28:43.225824Z

Period
109.72 min
Inclination
87.8978°
Eccentricity
0.0001751
Mean motion
13.12442232 rev/d
Perigee alt
1,212.4 km
Apogee alt
1,215.1 km
Semi-major
7,591.9 km
B*
1.2682e-3
RAAN
331.8087°
Arg perigee
100.3347°
Mean anomaly
259.7979°
Rev number
27,716

§ Raw data

ONEWEB-01261 47272U 20100Q   26263.18661141  .00000469  00000+0  12682-2 0  99912 47272  87.8978 331.8087 0001751 100.3347 259.7979 13.12442232277168

JSON: /api/v1/satellites/47272 · /tle

For live sub-satellite position, see the globe view (requires WebGL).

§ Visibility from observer

Set your observer location to see the next 7 days of passes ≥ 10°. The values pass through the URL so the page stays shareable.

No JS? Fill the form by hand. The geolocation button needs JavaScript.